Voltar ao catálogo

FENGYUN 1C DEB

AtivoSSO
NORAD 29948·DEBRIS·🇨🇳 China

Lançado May 10, 1999 de Taiyuan Satellite Launch Center

Loading…

Próximas Passagens (próximas 24 horas)

TLE

AtualizadoSource: Space-Track

Época: Sep 14, 2026, 17:14 UTC

1 29948U 99025JW  26257.71837708  .00000258  00000-0  17691-3 0  9992
2 29948  98.8504 242.3825 0084386 178.9174 356.0516 14.06311064  8550

Acompanhe FENGYUN 1C DEB em tempo real com AllMySat

Download on the App Store